DW2356 Weather Reports


time (UTC)temp
C
wind
direction
speed
KPH
gust
KPH
rain 1hr
cm
rain 24hr
cm
rain mn
cm
humidity
%
barometer
mb
20260503225838 31 132 1.6 1.6 0.00 0.00 0.00 25 1008.2
20260503225324 30 132 0.0 1.6 0.00 0.00 0.00 26 1008.2
20260503224837 30 132 0.0 1.6 0.00 0.00 0.00 26 1008.3
20260503224343 30 132 0.0 1.6 0.00 0.00 0.00 27 1008.4
20260503223823 30 132 0.0 1.6 0.00 0.00 0.00 25 1008.5
20260503223323 30 132 0.0 4.8 0.00 0.00 0.00 25 1008.5
20260503222838 31 132 3.2 4.8 0.00 0.00 0.00 27 1008.6
20260503222324 31 132 0.0 4.8 0.00 0.00 0.00 32 1008.7
20260503221830 31 132 1.6 6.4 0.00 0.00 0.00 31 1008.7
20260503221333 30 132 1.6 4.8 0.00 0.00 0.00 32 1008.8
20260503220836 30 132 0.0 0.0 0.00 0.00 0.00 31 1008.9
20260503220326 30 132 0.0 0.0 0.00 0.00 0.00 32 1008.9
20260503215822 30 132 0.0 0.0 0.00 0.00 0.00 34 1009.0
20260503215324 29 132 0.0 3.2 0.00 0.00 0.00 36 1009.0
20260503214833 29 132 0.0 3.2 0.00 0.00 0.00 39 1009.1
20260503214320 29 132 0.0 3.2 0.00 0.00 0.00 36 1009.2
20260503213828 29 132 1.6 3.2 0.00 0.00 0.00 36 1009.3
20260503213329 29 132 0.0 1.6 0.00 0.00 0.00 36 1009.3
20260503212831 29 132 0.0 1.6 0.00 0.00 0.00 37 1009.4
20260503212333 28 132 0.0 1.6 0.00 0.00 0.00 37 1009.5
20260503211822 28 132 0.0 0.0 0.00 0.00 0.00 40 1009.6
20260503211331 27 132 0.0 1.6 0.00 0.00 0.00 42 1009.6
20260503210838 27 132 0.0 1.6 0.00 0.00 0.00 44 1009.7
20260503210326 28 132 0.0 1.6 0.00 0.00 0.00 43 1009.8
20260503205832 28 132 0.0 3.2 0.00 0.00 0.00 43 1009.8
20260503205334 27 132 0.0 8.0 0.00 0.00 0.00 43 1009.8
20260503204830 27 132 4.8 8.0 0.00 0.00 0.00 39 1009.0
20260503204321 27 132 3.2 9.7 0.00 0.00 0.00 44 1009.9
20260503203822 27 132 3.2 9.7 0.00 0.00 0.00 43 1010.0
20260503203326 27 132 1.6 4.8 0.00 0.00 0.00 48 1010.1
20260503202816 27 132 3.2 6.4 0.00 0.00 0.00 48 1010.2
20260503202326 27 132 4.8 6.4 0.00 0.00 0.00 47 1010.2
20260503201831 27 132 3.2 8.0 0.00 0.00 0.00 48 1010.3
20260503201319 27 132 3.2 8.0 0.00 0.00 0.00 47 1010.3
20260503200820 27 132 0.0 6.4 0.00 0.00 0.00 53 1010.4
20260503200327 27 132 0.0 4.8 0.00 0.00 0.00 52 1010.5
20260503195831 26 132 0.0 6.4 0.00 0.00 0.00 53 1010.6
20260503195338 26 132 1.6 9.7 0.00 0.00 0.00 54 1010.7
20260503194826 26 132 4.8 9.7 0.00 0.00 0.00 53 1010.7
20260503194331 26 132 3.2 6.4 0.00 0.00 0.00 53 1010.8
20260503193822 25 132 1.6 4.8 0.00 0.00 0.00 53 1010.9
20260503193323 25 132 1.6 8.0 0.00 0.00 0.00 53 1010.9
20260503192826 24 132 1.6 8.0 0.00 0.00 0.00 57 1011.0
20260503192350 24 132 3.2 9.7 0.00 0.00 0.00 59 1011.0
20260503191837 24 132 6.4 12.9 0.00 0.00 0.00 56 1011.1
20260503191324 23 132 8.0 12.9 0.00 0.00 0.00 58 1011.1
20260503190836 23 132 9.7 12.9 0.00 0.00 0.00 56 1011.2
20260503190329 23 132 9.7 12.9 0.00 0.00 0.00 57 1011.2
20260503185828 23 132 9.7 12.9 0.00 0.00 0.00 59 1011.3
20260503185333 23 133 9.7 12.9 0.00 0.00 0.00 60 1011.4
20260503184842 22 133 9.7 12.9 0.00 0.00 0.00 59 1011.4
20260503184324 23 133 9.7 12.9 0.00 0.00 0.00 58 1011.5
20260503183829 23 134 6.4 12.9 0.00 0.00 0.00 60 1011.6
20260503183331 23 133 8.0 12.9 0.00 0.00 0.00 61 1011.6
20260503182831 22 134 9.7 14.5 0.00 0.00 0.00 61 1011.6
20260503182338 22 132 6.4 14.5 0.00 0.00 0.00 64 1011.6
20260503181821 22 132 8.0 14.5 0.00 0.00 0.00 64 1011.7
20260503181321 22 131 9.7 14.5 0.00 0.00 0.00 63 1011.7
20260503180823 21 130 8.0 14.5 0.00 0.00 0.00 65 1011.7
20260503180338 21 130 8.0 16.1 0.00 0.00 0.00 64 1011.8
20260503175824 21 130 9.7 16.1 0.00 0.00 0.00 66 1011.8
20260503175333 20 130 8.0 12.9 0.00 0.00 0.00 66 1011.9
20260503174838 20 130 9.7 14.5 0.00 0.00 0.00 67 1011.9
20260503174321 21 130 9.7 14.5 0.00 0.00 0.00 65 1012.0
20260503173824 21 132 9.7 16.1 0.00 0.00 0.00 64 1011.9
20260503173335 20 132 4.8 16.1 0.00 0.00 0.00 67 1012.0
20260503172835 19 132 6.4 12.9 0.00 0.00 0.00 68 1012.0
20260503172323 19 132 6.4 12.9 0.00 0.00 0.00 68 1012.0
20260503171837 19 132 8.0 16.1 0.00 0.00 0.00 68 1012.1
20260503171322 19 133 8.0 16.1 0.00 0.00 0.00 66 1012.1
20260503170825 19 132 9.7 14.5 0.00 0.00 0.00 68 1012.1
20260503170332 18 131 4.8 14.5 0.00 0.00 0.00 71 1012.1
20260503150832 14 132 9.7 12.9 0.00 0.00 0.00 83 1012.6
20260503150335 14 132 8.0 12.9 0.00 0.00 0.00 83 1012.6
20260503131335 12 139 6.4 12.9 0.00 0.00 0.00 93 1012.3
20260503130820 12 140 9.7 11.3 0.00 0.00 0.00 93 1012.4
20260503130326 12 140 3.2 11.3 0.00 0.00 0.00 93 1012.4
20260503110827 11 235 0.0 9.7 0.00 0.00 0.00 96 1012.7
20260503110330 11 247 1.6 8.0 0.00 0.00 0.00 97 1012.6
20260503090343 11 281 0.0 8.0 0.00 0.00 0.00 93 1013.0
20260503081324 12 292 0.0 0.0 0.00 0.00 0.00 93 1013.2
20260503080833 12 292 0.0 4.8 0.00 0.00 0.00 93 1013.2
20260503080328 12 292 0.0 3.2 0.00 0.00 0.00 94 1013.4
20260503072820 13 292 1.6 4.8 0.00 0.00 0.00 92 1013.4
20260503072326 13 292 0.0 3.2 0.00 0.00 0.00 92 1013.4
20260503071835 13 292 0.0 6.4 0.00 0.00 0.00 92 1013.3
20260503071321 13 292 0.0 8.0 0.00 0.00 0.00 92 1013.3
20260503070857 13 292 4.8 8.0 0.00 0.00 0.00 92 1013.3
20260503070335 13 292 6.4 8.0 0.00 0.00 0.00 92 1013.3
20260503060336 13 292 8.0 9.7 0.00 0.00 0.00 91 1013.7
20260503054822 13 292 3.2 8.0 0.00 0.00 0.00 90 1013.7
20260503054323 13 292 1.6 6.4 0.00 0.00 0.00 90 1013.7
20260503053826 13 292 1.6 6.4 0.00 0.00 0.00 90 1013.7
20260503053349 13 292 3.2 8.0 0.00 0.00 0.00 90 1013.7
20260503052833 13 292 3.2 8.0 0.00 0.00 0.00 90 1013.7
20260503052332 14 292 4.8 8.0 0.00 0.00 0.00 89 1013.7
20260503051821 14 292 3.2 6.4 0.00 0.00 0.00 89 1013.7
20260503051327 14 292 1.6 6.4 0.00 0.00 0.00 89 1013.6
20260503050834 14 292 0.0 6.4 0.00 0.00 0.00 89 1013.7
20260503050336 14 292 1.6 8.0 0.00 0.00 0.00 89 1013.7
20260503045840 14 292 4.8 8.0 0.00 0.00 0.00 88 1013.5
20260503045325 14 292 1.6 6.4 0.00 0.00 0.00 88 1013.5
20260503044828 14 292 0.0 8.0 0.00 0.00 0.00 88 1013.6
20260503044337 14 292 6.4 8.0 0.00 0.00 0.00 88 1013.5
20260503043824 15 292 4.8 8.0 0.00 0.00 0.00 87 1013.4
20260503043329 15 292 4.8 6.4 0.00 0.00 0.00 87 1013.3
20260503042838 15 292 4.8 8.0 0.00 0.00 0.00 87 1013.4
20260503042358 15 292 4.8 9.7 0.00 0.00 0.00 87 1013.3
20260503041859 15 292 6.4 9.7 0.00 0.00 0.00 88 1013.2
20260503041339 15 292 4.8 8.0 0.00 0.00 0.00 87 1013.1
20260503040827 15 292 4.8 8.0 0.00 0.00 0.00 87 1013.1
20260503040322 15 292 6.4 9.7 0.00 0.00 0.00 88 1013.0
20260503035844 15 292 6.4 9.7 0.00 0.00 0.00 88 1012.9
20260503035325 15 293 6.4 8.0 0.00 0.00 0.00 87 1012.8
20260503034827 15 293 6.4 9.7 0.00 0.00 0.00 87 1012.7
20260503034326 15 293 6.4 8.0 0.00 0.00 0.00 86 1012.6
20260503033830 15 293 4.8 8.0 0.00 0.00 0.00 86 1012.5
20260503033332 15 293 3.2 6.4 0.00 0.00 0.00 86 1012.4
20260503032838 15 293 3.2 6.4 0.00 0.00 0.00 85 1012.3
20260503032326 15 293 1.6 4.8 0.00 0.00 0.00 85 1012.2
20260503031828 15 293 1.6 6.4 0.00 0.00 0.00 85 1012.2
20260503031332 15 293 1.6 6.4 0.00 0.00 0.00 84 1012.1
20260503030854 16 293 1.6 9.7 0.00 0.00 0.00 84 1012.1
20260503030330 15 290 3.2 9.7 0.00 0.00 0.00 85 1012.0
20260503025821 16 290 8.0 11.3 0.00 0.00 0.00 84 1012.0
20260503025321 16 290 6.4 11.3 0.00 0.00 0.00 83 1012.0
20260503024824 16 291 8.0 9.7 0.00 0.00 0.00 82 1012.0
20260503024328 16 323 4.8 8.0 0.00 0.00 0.00 81 1012.0
20260503023850 17 323 4.8 8.0 0.00 0.00 0.00 79 1012.0
20260503023328 17 323 3.2 8.0 0.00 0.00 0.00 79 1012.0
20260503022821 17 323 4.8 8.0 0.00 0.00 0.00 77 1012.0
20260503022321 18 323 3.2 8.0 0.00 0.00 0.00 77 1012.0
20260503021833 18 323 3.2 8.0 0.00 0.00 0.00 77 1011.9
20260503021337 18 323 3.2 8.0 0.00 0.00 0.00 76 1011.9
20260503020826 18 323 4.8 11.3 0.00 0.00 0.00 75 1011.9
20260503015820 19 331 1.6 8.0 0.00 0.00 0.00 74 1011.9
20260503015330 20 331 3.2 8.0 0.00 0.00 0.00 74 1011.9
20260503014837 20 340 3.2 9.7 0.00 0.00 0.00 74 1011.9
20260503014322 20 355 1.6 9.7 0.00 0.00 0.00 74 1011.9
20260503013825 20 355 3.2 11.3 0.00 0.00 0.00 73 1012.0
20260503013332 20 349 3.2 11.3 0.00 0.00 0.00 73 1011.9
20260503012837 19 26 3.2 12.9 0.00 0.00 0.00 74 1011.9
20260503012334 19 5 4.8 14.5 0.00 0.00 0.00 73 1012.0
20260503011838 19 17 6.4 16.1 0.00 0.00 0.00 74 1011.9
20260503011323 19 360 3.2 12.9 0.00 0.00 0.00 74 1011.9
20260503010826 19 14 6.4 14.5 0.00 0.00 0.00 74 1012.0
20260503010334 19 5 9.7 16.1 0.00 0.00 0.00 74 1011.9
20260503005837 19 21 8.0 14.5 0.00 0.00 0.00 73 1011.9
20260503005343 20 19 6.4 17.7 0.00 0.00 0.00 72 1011.9
20260503004827 20 12 11.3 19.3 0.00 0.00 0.00 72 1011.9
20260503004317 20 17 8.0 14.5 0.00 0.00 0.00 72 1012.0
20260503003825 20 24 8.0 14.5 0.00 0.00 0.00 71 1011.9
20260503003329 20 21 4.8 19.3 0.00 0.00 0.00 72 1011.9
20260503002834 20 19 3.2 19.3 0.00 0.00 0.00 72 1011.9
20260503002322 20 355 8.0 19.3 0.00 0.00 0.00 71 1012.0
20260503001835 20 360 3.2 11.3 0.00 0.00 0.00 71 1012.0
20260503001321 20 348 3.2 12.9 0.00 0.00 0.00 70 1012.0
20260503000823 20 342 4.8 12.9 0.00 0.00 0.00 70 1012.1
20260503000357 20 308 6.4 12.9 0.00 0.00 0.00 70 1012.1
20260502235834 20 326 6.4 11.3 0.00 0.00 0.00 70 1012.1
20260502235320 20 325 4.8 12.9 0.00 0.00 0.00 71 1012.2
20260502234828 21 321 3.2 14.5 0.00 0.00 0.00 71 1012.2
20260502234334 21 323 4.8 14.5 0.00 0.00 0.00 70 1012.1
20260502233823 21 321 4.8 11.3 0.00 0.00 0.00 71 1012.2
20260502233327 20 328 4.8 11.3 0.00 0.00 0.00 72 1012.2
20260502232825 20 331 6.4 11.3 0.00 0.00 0.00 71 1012.3
20260502232337 20 350 4.8 11.3 0.00 0.00 0.00 74 1012.4
20260502231824 19 355 6.4 11.3 0.00 0.00 0.00 76 1012.4
20260502231356 18 197 6.4 9.7 0.00 0.00 0.00 76 1012.5
20260502230823 18 194 8.0 9.7 0.00 0.00 0.00 71 1012.5
20260502230327 19 186 4.8 8.0 0.00 0.00 0.00 70 1012.6